Location: *
(46.1333°S, 161.2167°W)
Time: 04:28:50
(UTC+00:00)

Cosmos 1655 Rocket - Pass Details

Date: 15 July 2020
Orbit: 970 x 1006 km, 83.0° (Epoch: 10 August)

Event Time Altitude Azimuth Distance (km) Brightness Sun altitude
Rises 16:19:52 0° 3° (N) 3,667 7.2 -20.5°
Reaches altitude 10° 16:22:23 10° 5° (N) 2,724 6.5 -20.1°
Maximum altitude 16:28:34 68° 86° (E) 1,055 4.4 -19.0°
Drops below altitude 10° 16:34:49 10° 167° (SSE) 2,751 6.4 -17.9°
Sets 16:37:21 0° 169° (S) 3,706 7.0 -17.5°
